Agen Poker | Poker Online | Poker Uang Asli | Dewa Poker

togel online

Jackpot

Texas Poker Multi Jackpot System

Kini Telah hadir Jackpot SUPER ROYAL FLUSH

Kini Telah hadir Jackpot 2000 (khusus table VIP keatas).

Ikutilah global jackpot yang tersedia di system kami, dengan system jackpot terbaru dan pertama di indonesia, anda dapat membeli jackpot dengan harga 100 rupiah saja dan menangkan hadiahnya hingga puluhan juta rupiah.

Jackpot bukanlah suatu keharusan untuk dibeli, namun kami memberikan suatu fitur tambahan untuk member tercinta dari www.kudapk.com.

Terdapat tiga pilihan harga jackpot yang bisa anda beli yaitu :100,500,1000 dan 2000(khusus table VIP Keatas) rupiah.

Hadiah dari Multi jackpot system www.kudapk.com

  1. full house x 10 harga jackpot yang anda beli.
      (contoh:anda membeli 1000 maka:1000 X10 = 10.000)
  2. four of kind x 250 harga jackpot yang anda beli
      (contoh:anda membeli 1000 maka:1000 X250 = 250.000)
  3. Straight flush x 1200
      (contoh:anda membeli 1000 maka:1000 X1200 = 1.200.000)
  4. Royal flush x 10000 harga jackpot yang anda beli
      (contoh:anda membeli 1000 maka:1000 X10000 = 10.000.000)
  5. SUPER ROYAL FLUSH x 30000 harga jackpot yang anda beli
      (contoh:anda membeli 1000 maka:1000 X30000 = 30.000.000)

Kondisi kartu

  1. full house adalah kondisi kartu dimana kartu anda dan kartu tengah dengan total 7 kartu bisa mendapatkan nilai 5 kartu dengan kombinasi 1 tris(three of kind) dan 1 pair, contoh 3 kartu 10 dan 2 kartu 5
  2. Four of kind adalah kondisi kartu dimana kartu anda dan kartu tengah dengan total 7 kartu bisa mendapatkan nilai 5 kartu dengan kombinasi 4 kartu yang sama jumlah dan 1 kartu apapun juga contoh anda mendapatkan 4 buah kartu angka 3 dan 1 kartu apapun.
  3. Staright flush adalah kondisi kartu dimana kartu anda dan kartu tengah dengan total 7 kartu bisa mendapatkan nilai 5 kartu dengan kombinasi seri / staright dengan kembang yang sama contoh : urutan kartu dari angka 5, 6, 7, 8 , 9 10 dengan kembang yg sama misalnya as hati
  4. Royal flush adalah kondisi kartu dimana kartu anda dan kartu tengah dengan total 7 kartu bisa mendapatkan nilai 5 kartu dengan kombinasi seri / staright dengan kembang yang sama tetapi kartu tersebut haruslah dimulai dari 10. contoh 10, Queen, Jack, King dan aces dengan kembang yang sama
  5. Super Royal flush adalah kondisi kartu dimana Kedua kartu anda digabung dengan 3 kartu pertama meja haruslah royal flush. contoh kartu anda 10,Queen kembang sama dan 3 kartu pertama meja adalah Jack, King dan aces dengan kembang yang sama

Demikian adalah penjelasan dari Multi Jackpot www.kudapk.com terima kasih dan selamat bermain salam hoki dari kami

Texas Poker Jackpot Winner

TOP SUPER ROYAL FLUSH
No.TanggalNamaPriceWin
122/11 06:48TOLOLJP88Super Royal flush3,000,000
221/11 23:49UDAKARTUSuper Royal flush6,000,000
321/11 18:47SYIFA59Super Royal flush3,000,000
421/11 18:36FISH8888888Super Royal flush15,000,000
521/11 15:28HGUKAM33AYSuper Royal flush30,000,000
TOP ROYAL FLUSH
No.TanggalNamaPriceWin
122/11 07:04G3LSRoyal flush10,000,000
222/11 06:49LAS7799Royal flush5,000,000
322/11 05:38NATSU017Royal flush1,000,000
422/11 05:37PARIUAKSRoyal flush2,000,000
522/11 05:24D264AKUPDCRoyal flush10,000,000
TOP STRAIGHT FLUSH
No.TanggalNamaPriceWin
122/11 08:26CILES011Straight Flush240,000
222/11 08:22BINTURSStraight Flush600,000
322/11 08:21ACCWDNDAR6Straight Flush120,000
422/11 08:14DE48E89CStraight Flush1,200,000
522/11 08:08SPARTA_99Straight Flush240,000
LATEST JACKPOT
No.TanggalNamaPriceWin
122/11 08:28D10C977BFour Of A Kind50,000
222/11 08:28WANPUTFull House1,000
322/11 08:28AEF7CE85Full House5,000
422/11 08:28SAYE16Full House10,000
522/11 08:28MAGATH86Full House2,000
622/11 08:28ZID4NE19Full House1,000
722/11 08:28FORTUNE58Full House1,000
822/11 08:28JOMBLO72Full House2,000
922/11 08:28DOYOK1983Full House2,000
1022/11 08:28JAF1RRFull House2,000
1122/11 08:28ARIES880Full House1,000
1222/11 08:28LWHPPJJXBNFull House2,000
1322/11 08:28B33W0K12Full House2,000
1422/11 08:28GALER82Full House5,000
1522/11 08:28MUHREZKYFour Of A Kind125,000
1622/11 08:28RADIEEETFull House2,000
1722/11 08:28BSNG234Full House5,000
1822/11 08:28DWBTRONG43Full House5,000
1922/11 08:28NINGS1H4YUFull House1,000
2022/11 08:27DHY23Four Of A Kind12,500
2122/11 08:27XCBNBG92Full House1,000
2222/11 08:27GOWINS26Four Of A Kind50,000
2322/11 08:27T4IKBD12Full House1,000
2422/11 08:27DB88774Full House2,000
2522/11 08:27TUKANGLARIFull House2,000
2622/11 08:27ARIL33Full House2,000
2722/11 08:27G3RG4UFour Of A Kind125,000
2822/11 08:27YEXBK5GAMKFull House2,000
2922/11 08:27ALIM92Full House5,000
3022/11 08:27KUCINGHK9Full House1,000
3122/11 08:27BANGKIT46Full House1,000
3222/11 08:27KABAL88Full House500
3322/11 08:27M1H3V0NFull House5,000
3422/11 08:27PRILIE12Full House10,000
3522/11 08:27BOGREK28Full House2,000
3622/11 08:27JUR1NGFull House2,000
3722/11 08:27A16FA893Full House1,000
3822/11 08:27DOAIBU0706Full House5,000
3922/11 08:27A2D8B237Full House2,000
4022/11 08:27SRTLKLEPON99Full House2,000
4122/11 08:27RHEBAXFull House500
4222/11 08:27H4ANFull House2,000
4322/11 08:27LAKILAKI_Full House2,000
4422/11 08:27S6PZRY1FGSFull House10,000
4522/11 08:26C3PET57Full House10,000
4622/11 08:26RONIPSTIFull House10,000
4722/11 08:26ZEDL77Full House10,000
4822/11 08:26BALESUE59Full House5,000
4922/11 08:26PARIUAKSFull House2,000
5022/11 08:26T4D0016422Full House2,000

Domino Multi Jackpot System

Ikutilah global jackpot yang tersedia di system kami, dengan system jackpot terbaru dan pertama di indonesia, anda dapat membeli jackpot dengan harga 100 rupiah saja dan menangkan hadiahnya hingga puluhan juta rupiah.

Jackpot bukanlah suatu keharusan untuk dibeli, namun kami memberikan suatu fitur tambahan untuk member tercinta dari www.kudapk.com.

Terdapat tiga pilihan harga jackpot yang bisa anda beli yaitu :100,500 dan 1000 rupiah.

Hadiah dari Multi jackpot system www.kudapk.com

  1. Murni Kecil x 50 harga jackpot yang anda beli.
      (contoh:anda membeli 1000 maka:1000 X 50 = 50.000)
  2. Murni Besar x 50 harga jackpot yang anda beli
      (contoh:anda membeli 1000 maka:1000 X 50 = 50.000)
  3. BALAK x 100 harga jackpot yang anda beli
      (contoh:anda membeli 1000 maka:1000 X 100 = 100.000)
  4. ENAM DEWA x 6666 harga jackpot yang anda beli
      (contoh:anda membeli 1000 maka:1000 X 6666 = 6.666.000)

Demikian adalah penjelasan dari Multi Jackpot www.kudapk.com terima kasih dan selamat bermain salam hoki dari kami

Domino Jackpot Winner

TOP ENAM DEWA
No.TanggalNamaPriceWin
122/11 08:13YATULMAH22murni enam6,666,000
222/11 02:13M_PI3murni enam666,600
322/11 01:34QQINDAHQmurni enam6,666,000
422/11 01:08OKILAmurni enam6,666,000
521/11 23:07DIM91murni enam6,666,000
TOP BALAK
No.TanggalNamaPriceWin
122/11 08:26TEMPE209balak100,000
222/11 08:13BRAGA3333balak100,000
322/11 08:07RICKO14balak10,000
422/11 07:57FRENDYYANbalak100,000
522/11 07:57MAGATH86balak50,000
LATEST JACKPOT
No.TanggalNamaPriceWin
122/11 08:27ROLAND8989lucky992,500
222/11 08:26INDRASLUHmurni kecil50,000
322/11 08:26LOVE36murni kecil25,000
422/11 08:26TEMPE209balak100,000
522/11 08:23GLANTER87murni besar50,000
622/11 08:22AHMAIDAmurni kecil50,000
722/11 08:21M4Y4N9_9murni besar5,000
822/11 08:16SIKUNCIR28murni besar25,000
922/11 08:15CEE509A6murni besar5,000
1022/11 08:14DEVI6003murni besar25,000
1122/11 08:14JAZY_88murni kecil50,000
1222/11 08:13YATULMAH22murni enam6,666,000
1322/11 08:13LOREN222murni kecil5,000
1422/11 08:13BRAGA3333balak100,000
1522/11 08:12MUDHATOlucky9925,000
1622/11 08:12ETJDAYmurni besar50,000
1722/11 08:10ETJDAYmurni kecil50,000
1822/11 08:08RIKITONGmurni besar25,000
1922/11 08:07RICKO14balak10,000
2022/11 08:06JN4HFYmurni besar50,000
2122/11 08:06JAZY_88lucky9925,000
2222/11 08:05PAUL7Cmurni besar50,000
2322/11 08:03JENAR21murni besar5,000
2422/11 08:02SUN2011lucky9910,000
2522/11 08:01SHILA17murni kecil50,000
2622/11 07:59IDIBW171121murni besar5,000
2722/11 07:58PAS23murni kecil25,000
2822/11 07:58LOREN222murni kecil5,000
2922/11 07:57FRENDYYANbalak100,000
3022/11 07:57MAGATH86balak50,000
3122/11 07:56C60BFB24murni besar5,000
3222/11 07:53RAJI26balak100,000
3322/11 07:53BETAROmurni kecil50,000
3422/11 07:51JAZY_88murni kecil50,000
3522/11 07:50M211murni besar50,000
3622/11 07:49DEMANG338murni kecil50,000
3722/11 07:47PLERITAMmurni kecil50,000
3822/11 07:47CSRTSMmurni besar5,000
3922/11 07:46D4454Kbalak100,000
4022/11 07:46SUGARA92murni besar25,000
4122/11 07:45MAPAKEmurni kecil5,000
4222/11 07:43YOYO022balak10,000
4322/11 07:43MIOSOUL03murni besar5,000
4422/11 07:41DEMANG338murni kecil50,000
4522/11 07:40JIPI1205murni kecil5,000
4622/11 07:40M4Y4N9_9balak10,000
4722/11 07:40JUKERMAN12murni besar25,000
4822/11 07:39CSRTSMmurni besar5,000
4922/11 07:39BERUK22murni besar50,000
5022/11 07:38DEMANG338murni besar50,000

Ceme Multi Jackpot System

Jackpot dilihat dari gabungan kartu pemain dengan kartu bandar. Bandar harus membeli jackpot sebanyak jumlah player yang sedang duduk. Sebagai contoh bila terdapat 3 pemain duduk bermain, dan bandar memutuskan untuk membeli jackpot Rp 1.000, maka pada periode tersebut bandar akan membeli jackpot sebanyak 3xRp1.000 = Rp3.000.

Jackpot bukanlah suatu keharusan untuk dibeli, namun kami memberikan suatu fitur tambahan untuk member tercinta dari www.kudapk.com.

Terdapat tiga pilihan harga jackpot yang bisa anda beli yaitu :100,500 dan 1000 rupiah.

Hadiah dari Multi jackpot system www.kudapk.com

  1. Murni Kecil x 50 harga jackpot yang anda beli.
      (contoh:anda membeli 1000 maka:1000 X 50 = 50.000)
  2. Murni Besar x 50 harga jackpot yang anda beli
      (contoh:anda membeli 1000 maka:1000 X 50 = 50.000)
  3. BALAK x 200 harga jackpot yang anda beli
      (contoh:anda membeli 1000 maka:1000 X 200 = 200.000)
  4. ENAM DEWA x 6666 harga jackpot yang anda beli
      (contoh:anda membeli 1000 maka:1000 X 6666 = 6.666.000)

Demikian adalah penjelasan dari Multi Jackpot www.kudapk.com terima kasih dan selamat bermain salam hoki dari kami

Ceme Jackpot Winner

TOP ENAM DEWA
No.TanggalNamaPriceWin
122/11 07:45NABILAAJAmurni enam3,333,000
222/11 07:32TYO_TYO20murni enam666,600
322/11 07:32P4P109murni enam3,333,000
422/11 07:11SIMEN297murni enam6,666,000
522/11 06:54KOCHY6767murni enam6,666,000
TOP BALAK
No.TanggalNamaPriceWin
122/11 08:28OPHAN21balak100,000
222/11 08:26HASTA666balak100,000
322/11 08:26MU_FANSbalak20,000
422/11 08:25GABOL09balak200,000
522/11 08:25TK_SMPbalak100,000
LATEST JACKPOT
No.TanggalNamaPriceWin
122/11 08:28DEMANG338murni besar50,000
222/11 08:28OPHAN21balak100,000
322/11 08:27E7710C00murni besar50,000
422/11 08:27GALAUBALAUmurni besar50,000
522/11 08:27GABOL09murni besar50,000
622/11 08:27T0CVHVVJKGmurni kecil50,000
722/11 08:27UNTUNG700murni kecil50,000
822/11 08:27LCDPECAH5murni kecil50,000
922/11 08:27SOQIFULmurni kecil25,000
1022/11 08:27ARIZONAQQQmurni kecil50,000
1122/11 08:27AXELLE07murni besar50,000
1222/11 08:27AXELLE07murni besar50,000
1322/11 08:27AA100587murni besar50,000
1422/11 08:26HASTA666balak100,000
1522/11 08:26MU_FANSbalak20,000
1622/11 08:26SDF123murni besar50,000
1722/11 08:26LAHAT303murni kecil50,000
1822/11 08:26AMS_LUCKY9murni kecil50,000
1922/11 08:26MANGIL17murni kecil50,000
2022/11 08:26E7710C00murni kecil50,000
2122/11 08:25GONDEZ55murni besar50,000
2222/11 08:25AXEL24murni besar50,000
2322/11 08:25JEPAR4murni kecil50,000
2422/11 08:25GABOL09balak200,000
2522/11 08:25TK_SMPbalak100,000
2622/11 08:24FATIH287murni kecil5,000
2722/11 08:24CLBHENRImurni kecil50,000
2822/11 08:24PNEJQORKJXmurni besar5,000
2922/11 08:24KNMBUH6MNEmurni besar5,000
3022/11 08:24MEOBAE3murni besar50,000
3122/11 08:23WAKYETmurni besar5,000
3222/11 08:23PNEJQORKJXmurni kecil5,000
3322/11 08:23KNMBUH6MNEmurni kecil5,000
3422/11 08:23SOIMUK88balak100,000
3522/11 08:23AUITUT66murni besar50,000
3622/11 08:23SAFRON99murni besar25,000
3722/11 08:23MEY117murni besar50,000
3822/11 08:23OKEPS05murni besar5,000
3922/11 08:21NIKOALFINTmurni kecil5,000
4022/11 08:21FL083_murni besar5,000
4122/11 08:21SEKAISML99murni besar5,000
4222/11 08:21MEOBAE3balak200,000
4322/11 08:21ZOLIZOLbalak20,000
4422/11 08:21E7710C00murni kecil50,000
4522/11 08:21GALAUBALAUmurni kecil50,000
4622/11 08:20WOLF09balak200,000
4722/11 08:20CAPUKmurni besar50,000
4822/11 08:20KONIN89balak200,000
4922/11 08:20BHALTOVmurni kecil5,000
5022/11 08:20SDF123murni besar50,000